Location: Monrovia
(34.7865°N, 86.7139°W)
Time: 21:57:16
(UTC+00:00)

COSMOS 2487 - Pass Details

Date: 14 July 2020
Orbit: 441 x 442 km, 74.7° (Epoch: 08 August)

Event Time Altitude Azimuth Distance (km) Brightness Sun altitude
Exits shadow 09:35:35 - 171° (S) 2,055 5.5 -12.7°
Reaches altitude 10° 09:36:54 10° 163° (SSE) 1,553 4.9 -12.5°
Maximum altitude 09:39:54 29° 101° (ESE) 832 4.2 -12.0°
Drops below altitude 10° 09:42:56 10° 39° (NE) 1,563 6.5 -11.6°
Sets 09:45:10 0° 28° (NNE) 2,437 7.4 -11.2°
